Peru, IL

11:11 PM CDT on July 20, 2017 (GMT -0500)
Illinois Valley Regional-Duncan

Weather History for KVYS - October, 2012

Change the Weather History Date:

Tuesday, October 2, 2012

  Actual Average Record
Temperature  
Mean Temperature 60 °F -  
Max Temperature 74 °F 72 °F 89 °F (1976)
Min Temperature 47 °F 45 °F 24 °F (1974)
Degree Days  
Heating Degree Days 4    
Growing Degree Days 10 (Base 50)    
Moisture  
Dew Point 45 °F    
Average Humidity 59    
Maximum Humidity 87    
Minimum Humidity 33    
Precipitation  
Precipitation 0.00 in - - ()
Sea Level Pressure  
Sea Level Pressure 29.85 in    
Wind  
Wind Speed 8 mph (NE)    
Max Wind Speed 16 mph    
Max Gust Speed 23 mph    
Visibility 10 miles    
Events      
Averages and records for this station are not official NWS values.
T = Trace of Precipitation, MM = Missing Value Source: NWS Daily Summary

Daily Weather History Graph

Daily Weather History Graph

Search for Another Location

Airport or City:

Trip Planner

Search our weather history database for the weather conditions in past years. The results will help you decide how hot, cold, wet, or windy it might be!

Date:

Astronomy

Oct. 02, 2012 Rise Set
Actual Time 6:54 AM CDT 6:35 PM CDT
Civil Twilight 6:27 AM CDT 7:03 PM CDT
Nautical Twilight 5:55 AM CDT 7:35 PM CDT
Astronomical Twilight 5:22 AM CDT 8:07 PM CDT
Moon 7:46 PM CDT (10/2) 9:24 AM CDT (10/2)
Length of Visible Light 12h 36m
Length of Day
11h 41m
Waning Gibbous, 94% of the Moon is Illuminated
Oct 2
Waning Gibbous
Oct 8
Last Quarter
Oct 15
New
Oct 21
First Quarter
Oct 29
Full

Hourly Weather History & Observations

Time (CDT) Temp. Dew Point Humidity Pressure Visibility Wind Dir Wind Speed Gust Speed Precip Events Conditions
12:15 AM 53.2 °F 44.2 °F 72% 29.82 in 10.0 mi NE 6.9 mph - N/A   Clear
12:35 AM 53.1 °F 44.1 °F 71% 29.82 in 10.0 mi ENE 6.9 mph - N/A   Clear
12:55 AM 52.2 °F 44.1 °F 74% 29.82 in 10.0 mi NE 6.9 mph - N/A   Clear
1:15 AM 51.4 °F 44.1 °F 76% 29.82 in 10.0 mi NNE 3.5 mph - N/A   Clear
1:35 AM 50.0 °F 42.8 °F 76% 29.83 in 10.0 mi North 3.5 mph - N/A   Clear
1:55 AM 50.0 °F 44.6 °F 82% 29.83 in 10.0 mi North 4.6 mph - N/A   Clear
2:15 AM 50.9 °F 45.0 °F 80% 29.82 in 10.0 mi NNE 5.8 mph - N/A   Clear
2:35 AM 51.1 °F 45.5 °F 81% 29.82 in 10.0 mi NNE 6.9 mph - N/A   Clear
2:55 AM 50.0 °F 44.6 °F 82% 29.82 in 10.0 mi North 6.9 mph - N/A   Clear
3:15 AM 50.4 °F 45.1 °F 82% 29.82 in 10.0 mi North 8.1 mph - N/A   Clear
3:35 AM 50.4 °F 44.8 °F 81% 29.82 in 10.0 mi NNE 5.8 mph - N/A   Clear
3:55 AM 49.3 °F 44.2 °F 83% 29.83 in 10.0 mi NNE 6.9 mph - N/A   Clear
4:15 AM 49.3 °F 44.1 °F 82% 29.83 in 10.0 mi North 6.9 mph - N/A   Clear
4:35 AM 49.3 °F 44.1 °F 82% 29.83 in 10.0 mi North 8.1 mph - N/A   Clear
4:55 AM 48.4 °F 43.5 °F 83% 29.83 in 10.0 mi North 8.1 mph - N/A   Clear
5:15 AM 48.2 °F 44.6 °F 87% 29.84 in 10.0 mi North 8.1 mph - N/A   Clear
5:35 AM 47.8 °F 43.2 °F 84% 29.85 in 10.0 mi North 10.4 mph - N/A   Clear
5:55 AM 47.7 °F 43.5 °F 86% 29.85 in 10.0 mi North 9.2 mph - N/A   Clear
6:15 AM 47.3 °F 43.2 °F 86% 29.85 in 10.0 mi North 6.9 mph - N/A   Clear
6:35 AM 47.7 °F 43.3 °F 85% 29.85 in 10.0 mi North 6.9 mph - N/A   Clear
6:55 AM 47.3 °F 43.3 °F 86% 29.86 in 10.0 mi North 5.8 mph - N/A   Clear
7:15 AM 47.7 °F 43.7 °F 86% 29.86 in 7.0 mi North 8.1 mph - N/A   Clear
7:35 AM 47.3 °F 43.5 °F 87% 29.87 in 7.0 mi NNE 9.2 mph - N/A   Clear
7:55 AM 49.3 °F 45.0 °F 85% 29.87 in 10.0 mi NNE 8.1 mph - N/A   Clear
8:15 AM 51.3 °F 46.2 °F 83% 29.88 in 10.0 mi North 8.1 mph - N/A   Clear
8:35 AM 53.8 °F 47.7 °F 80% 29.88 in 10.0 mi NNE 9.2 mph - N/A   Clear
8:55 AM 56.7 °F 48.9 °F 75% 29.88 in 10.0 mi NNE 9.2 mph - N/A   Clear
9:15 AM 59.9 °F 50.7 °F 72% 29.88 in 10.0 mi NNE 10.4 mph - N/A   Clear
9:35 AM 62.1 °F 51.6 °F 69% 29.88 in 10.0 mi NNE 11.5 mph - N/A   Clear
9:55 AM 63.1 °F 51.8 °F 66% 29.88 in 10.0 mi NNE 11.5 mph - N/A   Clear
10:15 AM 64.4 °F 50.2 °F 60% 29.88 in 10.0 mi NE 13.8 mph - N/A   Clear
10:35 AM 65.7 °F 48.6 °F 54% 29.87 in 10.0 mi NE 13.8 mph - N/A   Clear
10:55 AM 66.6 °F 48.0 °F 51% 29.87 in 10.0 mi NE 11.5 mph 18.4 mph N/A   Clear
11:15 AM 67.5 °F 47.3 °F 48% 29.87 in 10.0 mi NNE 9.2 mph 17.3 mph N/A   Clear
11:35 AM 68.0 °F 46.6 °F 46% 29.87 in 10.0 mi NE 10.4 mph - N/A   Clear
11:55 AM 68.5 °F 46.0 °F 44% 29.87 in 10.0 mi ENE 9.2 mph 18.4 mph N/A   Clear
12:15 PM 69.6 °F 45.9 °F 43% 29.87 in 10.0 mi NE 10.4 mph 16.1 mph N/A   Clear
12:35 PM 70.2 °F 44.4 °F 40% 29.86 in 10.0 mi NE 10.4 mph 20.7 mph N/A   Clear
12:55 PM 71.1 °F 44.8 °F 39% 29.85 in 10.0 mi NE 11.5 mph 17.3 mph N/A   Clear
1:15 PM 71.4 °F 44.6 °F 38% 29.84 in 10.0 mi NNE 13.8 mph 18.4 mph N/A   Clear
1:35 PM 72.5 °F 43.0 °F 35% 29.83 in 10.0 mi NE 12.7 mph 20.7 mph N/A   Clear
1:55 PM 72.9 °F 43.5 °F 35% 29.83 in 10.0 mi NE 12.7 mph 19.6 mph N/A   Clear
2:15 PM 73.0 °F 44.1 °F 35% 29.83 in 10.0 mi NNE 13.8 mph - N/A   Clear
2:35 PM 73.4 °F 44.4 °F 35% 29.83 in 10.0 mi NNE 12.7 mph 21.9 mph N/A   Clear
2:55 PM 73.4 °F 44.6 °F 36% 29.82 in 10.0 mi NE 13.8 mph 21.9 mph N/A   Clear
3:15 PM 73.4 °F 44.1 °F 35% 29.82 in 10.0 mi NE 16.1 mph - N/A   Clear
3:35 PM 73.8 °F 44.1 °F 34% 29.82 in 10.0 mi NNE 13.8 mph 19.6 mph N/A   Clear
3:55 PM 74.5 °F 44.2 °F 34% 29.82 in 10.0 mi ENE 11.5 mph 18.4 mph N/A   Clear
4:15 PM 73.8 °F 44.4 °F 35% 29.82 in 10.0 mi NNE 13.8 mph - N/A   Clear
4:35 PM 73.6 °F 43.3 °F 34% 29.82 in 10.0 mi NE 13.8 mph 23.0 mph N/A   Clear
4:55 PM 73.6 °F 42.4 °F 33% 29.82 in 10.0 mi NE 11.5 mph 17.3 mph N/A   Clear
5:15 PM 72.5 °F 41.9 °F 33% 29.82 in 10.0 mi ENE 15.0 mph - N/A   Clear
5:35 PM 71.2 °F 41.9 °F 35% 29.83 in 10.0 mi ENE 12.7 mph - N/A   Clear
5:55 PM 69.8 °F 42.3 °F 37% 29.84 in 10.0 mi ENE 10.4 mph - N/A   Clear
6:15 PM 68.4 °F 42.8 °F 40% 29.84 in 10.0 mi ENE 12.7 mph - N/A   Clear
6:35 PM 66.7 °F 42.8 °F 42% 29.85 in 10.0 mi ENE 8.1 mph - N/A   Clear
6:55 PM 64.9 °F 42.8 °F 45% 29.85 in 10.0 mi ENE 10.4 mph - N/A   Clear
7:15 PM 64.9 °F 42.8 °F 45% 29.86 in 10.0 mi ENE 10.4 mph - N/A   Mostly Cloudy
7:35 PM 64.4 °F 42.3 °F 44% 29.87 in 10.0 mi East 9.2 mph - N/A   Overcast
7:55 PM 62.6 °F 42.8 °F 48% 29.87 in 10.0 mi East 9.2 mph - N/A   Overcast
8:15 PM 62.6 °F 42.4 °F 48% 29.88 in 10.0 mi ENE 8.1 mph - N/A   Mostly Cloudy
8:35 PM 62.6 °F 42.8 °F 48% 29.89 in 10.0 mi East 8.1 mph - N/A   Scattered Clouds
8:55 PM 62.6 °F 42.8 °F 48% 29.89 in 10.0 mi East 8.1 mph - N/A   Overcast
9:15 PM 61.9 °F 43.2 °F 50% 29.90 in 10.0 mi ENE 6.9 mph - N/A   Scattered Clouds
9:35 PM 60.8 °F 42.8 °F 52% 29.91 in 10.0 mi ENE 6.9 mph - N/A   Clear
9:55 PM 60.4 °F 43.0 °F 53% 29.91 in 10.0 mi ENE 6.9 mph - N/A   Scattered Clouds
10:15 PM 60.4 °F 43.7 °F 54% 29.91 in 10.0 mi East 6.9 mph - N/A   Mostly Cloudy
10:35 PM 60.1 °F 44.8 °F 57% 29.91 in 10.0 mi East 5.8 mph - N/A   Overcast
10:55 PM 60.1 °F 44.6 °F 57% 29.91 in 10.0 mi NE 6.9 mph - N/A   Overcast
11:15 PM 60.3 °F 45.5 °F 58% 29.91 in 10.0 mi ENE 5.8 mph - N/A   Overcast
11:35 PM 60.1 °F 45.3 °F 58% 29.91 in 10.0 mi ENE 4.6 mph - N/A   Overcast
11:55 PM 59.9 °F 45.5 °F 59% 29.91 in 10.0 mi NE 6.9 mph - N/A   Overcast